Okmulgee, OK

4:02 PM CDT on September 20, 2017 (GMT -0500)
Okmulgee Regional

Weather History for KOKM - January, 2013

Change the Weather History Date:

Saturday, January 12, 2013

  Actual Average (KMKO) Record (KMKO)
Temperature  
Mean Temperature 46 °F -  
Max Temperature 62 °F 46 °F 73 °F (2000)
Min Temperature 30 °F 27 °F 10 °F (1997)
Degree Days  
Heating Degree Days 19    
Moisture  
Dew Point 33 °F    
Average Humidity 73    
Maximum Humidity 100    
Minimum Humidity 31    
Precipitation  
Precipitation 0.15 in - - ()
Sea Level Pressure  
Sea Level Pressure 29.91 in    
Wind  
Wind Speed 11 mph (North)    
Max Wind Speed 21 mph    
Max Gust Speed 31 mph    
Visibility 9 miles    
Events Rain , Snow , Thunderstorm    
Averages and records for this station are not official NWS values.
T = Trace of Precipitation, MM = Missing Value Source: NWS Daily Summary

Daily Weather History Graph

Daily Weather History Graph

Search for Another Location

Airport or City:

Trip Planner

Search our weather history database for the weather conditions in past years. The results will help you decide how hot, cold, wet, or windy it might be!

Date:

Astronomy

Jan. 12, 2013 Rise Set
Actual Time 7:33 AM CST 5:31 PM CST
Civil Twilight 7:05 AM CST 5:59 PM CST
Nautical Twilight 6:34 AM CST 6:30 PM CST
Astronomical Twilight 6:03 AM CST 7:01 PM CST
Moon 7:56 AM CST (1/12) 6:57 PM CST (1/12)
Length of Visible Light 10h 53m
Length of Day
9h 57m
New Moon, 1% of the Moon is Illuminated
Jan 12
New Moon
Jan 18
First Quarter
Jan 26
Full
Feb 3
Last Quarter
Feb 10
New

Hourly Weather History & Observations

Time (CST) Temp. Windchill Dew Point Humidity Pressure Visibility Wind Dir Wind Speed Gust Speed Precip Events Conditions
12:15 AM 60.8 °F - 46.4 °F 59% 29.78 in 10.0 mi South 10.4 mph - N/A   Clear
12:35 AM 60.8 °F - 48.2 °F 63% 29.79 in 10.0 mi South 9.2 mph - N/A   Clear
12:55 AM 60.8 °F - 50.0 °F 68% 29.83 in 10.0 mi WNW 9.2 mph - N/A   Scattered Clouds
1:15 AM 62.6 °F - 51.8 °F 68% 29.83 in 10.0 mi WSW 5.8 mph - N/A   Mostly Cloudy
1:35 AM 62.6 °F - 51.8 °F 68% 29.84 in 10.0 mi West 4.6 mph - N/A   Mostly Cloudy
1:55 AM 62.6 °F - 51.8 °F 68% 29.84 in 10.0 mi WSW 4.6 mph - N/A   Overcast
2:15 AM 60.8 °F - 51.8 °F 72% 29.84 in 10.0 mi Calm Calm - N/A   Mostly Cloudy
2:35 AM 60.8 °F - 51.8 °F 72% 29.85 in 10.0 mi WNW 4.6 mph - N/A   Scattered Clouds
2:55 AM 60.8 °F - 42.8 °F 52% 29.85 in 10.0 mi NNW 8.1 mph - N/A   Clear
3:15 AM 59.0 °F - 32.0 °F 36% 29.84 in 10.0 mi NNE 6.9 mph - N/A   Clear
3:35 AM 59.0 °F - 30.2 °F 34% 29.84 in 10.0 mi NNW 5.8 mph - N/A Rain Light Rain
3:55 AM 59.0 °F - 28.4 °F 31% 29.84 in 10.0 mi NNW 8.1 mph - N/A   Scattered Clouds
4:15 AM 57.2 °F - 28.4 °F 33% 29.84 in 10.0 mi North 10.4 mph - N/A   Clear
4:35 AM 55.4 °F - 28.4 °F 36% 29.82 in 10.0 mi North 11.5 mph - N/A   Clear
4:55 AM 55.4 °F - 30.2 °F 38% 29.81 in 10.0 mi North 13.8 mph 19.6 mph N/A   Clear
5:15 AM 55.4 °F - 28.4 °F 36% 29.83 in 10.0 mi North 9.2 mph - N/A   Clear
5:35 AM 53.6 °F - 30.2 °F 41% 29.86 in 10.0 mi North 5.8 mph - N/A   Mostly Cloudy
5:55 AM 53.6 °F - 28.4 °F 38% 29.87 in 10.0 mi North 11.5 mph - N/A   Overcast
6:15 AM 53.6 °F - 28.4 °F 38% 29.87 in 10.0 mi North 16.1 mph 20.7 mph N/A   Overcast
6:35 AM 51.8 °F - 30.2 °F 44% 29.89 in 10.0 mi North 15.0 mph 20.7 mph N/A   Overcast
6:55 AM 50.0 °F - 32.0 °F 50% 29.91 in 10.0 mi North 12.7 mph - N/A Rain Light Rain
7:15 AM 48.2 °F - 33.8 °F 58% 29.91 in 10.0 mi North 16.1 mph 23.0 mph N/A Rain Light Rain
7:35 AM 46.4 °F 40.4 °F 33.8 °F 62% 29.91 in 10.0 mi North 13.8 mph 24.2 mph N/A   Overcast
7:55 AM 46.4 °F 39.8 °F 33.8 °F 62% 29.93 in 10.0 mi North 16.1 mph 21.9 mph N/A   Overcast
8:15 AM 44.6 °F 36.9 °F 33.8 °F 66% 29.94 in 10.0 mi North 18.4 mph 24.2 mph N/A   Overcast
8:35 AM 42.8 °F 36.6 °F 33.8 °F 70% 29.95 in 10.0 mi North 11.5 mph 19.6 mph N/A   Light Drizzle
8:55 AM 42.8 °F 35.1 °F 33.8 °F 70% 29.95 in 10.0 mi North 16.1 mph - N/A   Overcast
9:15 AM 42.8 °F 34.5 °F 33.8 °F 70% 29.93 in 10.0 mi North 18.4 mph 23.0 mph N/A   Overcast
9:35 AM 41.0 °F 31.9 °F 33.8 °F 76% 29.94 in 10.0 mi North 19.6 mph 24.2 mph N/A   Overcast
9:55 AM 41.0 °F 33.1 °F 33.8 °F 76% 29.95 in 10.0 mi North 15.0 mph 24.2 mph N/A   Overcast
10:15 AM 42.8 °F 35.1 °F 32.0 °F 66% 29.96 in 10.0 mi North 16.1 mph - N/A Thunderstorm Overcast
10:35 AM 41.0 °F 31.6 °F 32.0 °F 70% 29.96 in 10.0 mi North 20.7 mph 25.3 mph N/A   Overcast
10:55 AM 41.0 °F 32.8 °F 32.0 °F 70% 29.95 in 10.0 mi North 16.1 mph 19.6 mph N/A   Overcast
11:15 AM 42.8 °F 35.4 °F 32.0 °F 66% 29.94 in 10.0 mi NNE 15.0 mph - N/A   Overcast
11:55 AM 41.0 °F 32.8 °F 30.2 °F 65% 29.91 in 10.0 mi NNE 16.1 mph 24.2 mph N/A   Overcast
12:15 PM 41.0 °F 32.8 °F 30.2 °F 65% 29.89 in 10.0 mi NNE 16.1 mph 25.3 mph N/A   Overcast
12:35 PM 41.0 °F 31.9 °F 30.2 °F 65% 29.85 in 10.0 mi NNE 19.6 mph 25.3 mph N/A   Overcast
12:55 PM 37.4 °F 28.2 °F 32.0 °F 81% 29.86 in 4.0 mi North 16.1 mph 24.2 mph 0.03 in Rain , Thunderstorm Thunderstorms and Rain
1:15 PM 35.6 °F 27.1 °F 32.0 °F 87% 29.89 in 3.0 mi North 12.7 mph 18.4 mph 0.03 in Rain , Thunderstorm Light Thunderstorms and Rain
1:35 PM 35.6 °F 26.6 °F 32.0 °F 87% 29.87 in 4.0 mi North 13.8 mph - 0.06 in Rain Light Rain
1:55 PM 35.6 °F 26.6 °F 32.0 °F 87% 29.85 in 5.0 mi North 13.8 mph 23.0 mph 0.07 in Rain Rain
2:15 PM 35.6 °F 25.2 °F 32.0 °F 87% 29.84 in 10.0 mi North 18.4 mph 24.2 mph N/A Rain , Thunderstorm Light Thunderstorms and Rain
2:35 PM 35.6 °F 27.1 °F 32.0 °F 87% 29.88 in 10.0 mi North 12.7 mph 23.0 mph 0.01 in   Light Drizzle
2:55 PM 35.6 °F 25.5 °F 32.0 °F 87% 29.86 in 10.0 mi North 17.3 mph 24.2 mph 0.01 in Rain , Thunderstorm Light Thunderstorms and Rain
3:15 PM 35.6 °F 24.8 °F 32.0 °F 87% 29.84 in 1.8 mi North 19.6 mph 31.1 mph 0.04 in Snow Light Snow
3:35 PM 33.8 °F 22.8 °F 32.0 °F 93% 29.87 in 10.0 mi North 18.4 mph 27.6 mph 0.04 in   Overcast
3:55 PM 33.8 °F 23.9 °F 32.0 °F 93% 29.89 in 10.0 mi North 15.0 mph 27.6 mph 0.04 in   Overcast
4:15 PM 33.8 °F 23.2 °F 30.2 °F 87% 29.87 in 10.0 mi North 17.3 mph - N/A   Overcast
4:35 PM 33.8 °F 22.2 °F 30.2 °F 87% 29.91 in 10.0 mi North 20.7 mph 29.9 mph N/A   Overcast
4:55 PM 32.0 °F 21.2 °F 30.2 °F 93% 29.92 in 7.0 mi NNW 16.1 mph 27.6 mph N/A Rain Light Rain
5:15 PM 32.0 °F 22.1 °F 30.2 °F 93% 29.94 in 10.0 mi North 13.8 mph 24.2 mph N/A   Overcast
5:35 PM 32.0 °F 21.2 °F 32.0 °F 100% 29.92 in 2.0 mi North 16.1 mph 23.0 mph N/A Snow Light Snow
5:55 PM 32.0 °F 21.2 °F 32.0 °F 100% 29.92 in 7.0 mi NNE 16.1 mph 21.9 mph N/A   Overcast
6:15 PM 33.8 °F 24.8 °F 32.0 °F 93% 29.94 in 7.0 mi North 12.7 mph - N/A   Overcast
6:35 PM 32.0 °F 23.6 °F 32.0 °F 100% 29.96 in 7.0 mi North 10.4 mph - N/A Thunderstorm Overcast
6:55 PM 32.0 °F 23.6 °F 32.0 °F 100% 29.96 in 5.0 mi North 10.4 mph - N/A   Overcast
7:15 PM 32.0 °F 23.6 °F 32.0 °F 100% 29.96 in 5.0 mi North 10.4 mph - N/A Snow Light Snow
7:35 PM 32.0 °F 24.2 °F 30.2 °F 93% 29.97 in 10.0 mi NNW 9.2 mph - N/A   Overcast
7:55 PM 32.0 °F 24.2 °F 30.2 °F 93% 29.96 in 10.0 mi North 9.2 mph - N/A   Overcast
8:15 PM 32.0 °F 23.6 °F 30.2 °F 93% 29.98 in 10.0 mi North 10.4 mph - N/A   Overcast
8:35 PM 32.0 °F 26.4 °F 30.2 °F 93% 30.00 in 10.0 mi NNW 5.8 mph - N/A   Overcast
8:55 PM 32.0 °F 23.0 °F 28.4 °F 87% 29.99 in 10.0 mi North 11.5 mph - N/A   Overcast
9:15 PM 32.0 °F 25.6 °F 28.4 °F 87% 30.01 in 10.0 mi North 6.9 mph - N/A   Overcast
9:35 PM 32.0 °F 24.2 °F 28.4 °F 87% 30.00 in 10.0 mi North 9.2 mph - N/A   Overcast
9:55 PM 30.2 °F 22.6 °F 26.6 °F 86% 30.00 in 10.0 mi North 8.1 mph - N/A   Overcast
10:15 PM 32.0 °F 24.8 °F 26.6 °F 80% 30.00 in 10.0 mi North 8.1 mph - N/A   Overcast
10:35 PM 30.2 °F 20.8 °F 26.6 °F 86% 29.99 in 10.0 mi North 11.5 mph 17.3 mph N/A   Overcast
10:55 PM 30.2 °F 21.9 °F 24.8 °F 80% 30.02 in 10.0 mi North 9.2 mph - N/A   Overcast
11:15 PM 30.2 °F 22.6 °F 24.8 °F 80% 30.03 in 10.0 mi NNW 8.1 mph - N/A   Overcast
11:35 PM 30.2 °F 23.4 °F 26.6 °F 86% 30.05 in 10.0 mi NNW 6.9 mph - N/A   Overcast
11:55 PM 30.2 °F 20.8 °F 26.6 °F 86% 30.04 in 10.0 mi NNW 11.5 mph - N/A   Overcast